EW3345 Weather Reports


time (UTC)temp
C
wind
direction
speed
KPH
gust
KPH
rain 1hr
cm
rain 24hr
cm
rain mn
cm
humidity
%
barometer
mb
20260506122257 12 90 1.6 6.4 0.00 0.00 0.00 40 1014.3
20260506121217 12 135 4.8 8.0 0.00 0.00 0.00 37 1014.5
20260506120217 12 293 9.7 14.5 0.00 0.00 0.00 38 1014.5
20260506115257 12 113 8.0 11.3 0.00 0.00 0.00 40 1014.5
20260506114217 12 113 4.8 8.0 0.00 0.00 0.00 38 1014.6
20260506113237 12 135 4.8 9.7 0.00 0.00 0.00 40 1014.7
20260506112217 11 315 4.8 8.0 0.00 0.00 0.00 38 1014.7
20260506111216 11 315 17.7 20.9 0.00 0.00 0.00 40 1014.6
20260506110217 11 248 1.6 6.4 0.00 0.00 0.00 40 1014.9
20260506105216 11 203 3.2 8.0 0.00 0.00 0.00 44 1014.8
20260506104217 11 180 1.6 4.8 0.00 0.00 0.00 39 1014.8
20260506103217 11 293 6.4 12.9 0.00 0.00 0.00 39 1014.9
20260506102217 11 293 11.3 16.1 0.00 0.00 0.00 42 1015.0
20260506101216 11 158 1.6 3.2 0.00 0.00 0.00 42 1014.9
20260506100216 11 315 12.9 16.1 0.00 0.00 0.00 42 1015.0
20260506095216 11 338 1.6 4.8 0.00 0.00 0.00 40 1015.1
20260506094217 11 315 3.2 6.4 0.00 0.00 0.00 42 1015.1
20260506093217 10 293 9.7 19.3 0.00 0.00 0.00 43 1015.0
20260506092217 10 315 9.7 16.1 0.00 0.00 0.00 48 1015.0
20260506091217 10 315 4.8 6.4 0.00 0.00 0.00 45 1015.0
20260506090216 10 315 12.9 19.3 0.00 0.00 0.00 48 1015.0
20260506085216 10 293 8.0 14.5 0.00 0.00 0.00 48 1015.0
20260506084217 10 293 4.8 9.7 0.00 0.00 0.00 49 1015.0
20260506083236 10 293 14.5 16.1 0.00 0.00 0.00 47 1014.9
20260506082216 9 338 8.0 11.3 0.00 0.00 0.00 48 1015.1
20260506081237 9 315 8.0 17.7 0.00 0.00 0.00 50 1015.0
20260506080216 9 293 9.7 14.5 0.00 0.00 0.00 50 1015.0
20260506073216 8 293 14.5 20.9 0.00 0.00 0.00 52 1014.7
20260506072216 8 315 9.7 12.9 0.00 0.00 0.00 52 1014.8
20260506071216 8 315 8.0 12.9 0.00 0.00 0.00 51 1014.5
20260506070216 8 293 11.3 16.1 0.00 0.00 0.00 54 1014.6
20260506062216 7 315 4.8 6.4 0.00 0.00 0.00 58 1014.2
20260506061216 7 315 8.0 12.9 0.00 0.00 0.00 59 1014.3
20260506060216 6 293 9.7 12.9 0.00 0.00 0.00 61 1014.3
20260506051216 5 293 4.8 6.4 0.00 0.00 0.00 71 1014.1
20260506050216 5 293 4.8 6.4 0.00 0.00 0.00 74 1013.9
20260506044216 3 315 1.6 3.2 0.00 0.00 0.00 78 1013.9
20260506043236 3 293 3.2 3.2 0.00 0.00 0.00 79 1013.8
20260506042216 3 248 1.6 3.2 0.00 0.00 0.00 81 1013.7
20260506041216 2 0.0 0.0 0.00 0.00 0.00 81 1013.6
20260506040216 2 225 3.2 3.2 0.00 0.00 0.00 82 1013.6
20260506035216 1 248 1.6 1.6 0.00 0.00 0.00 83 1013.4
20260506034216 1 0.0 0.0 0.00 0.00 0.00 83 1013.3
20260506033216 1 0.0 0.0 0.00 0.00 0.00 83 1013.2
20260506032216 1 0.0 0.0 0.00 0.00 0.00 83 1013.1
20260506031216 1 0.0 0.0 0.00 0.00 0.00 82 1012.9
20260506030216 1 0.0 0.0 0.00 0.00 0.00 82 1012.7
20260506025236 0 0.0 1.6 0.00 0.00 0.00 82 1012.6
20260506024216 0 0.0 0.0 0.00 0.00 0.00 82 1012.5
20260506023216 0 0.0 0.0 0.00 0.00 0.00 81 1012.5
20260506022216 0 0.0 0.0 0.00 0.00 0.00 80 1012.5
20260506021236 1 0.0 0.0 0.00 0.00 0.00 79 1012.4
20260506020235 1 0.0 0.0 0.00 0.00 0.00 79 1012.4
20260506015215 1 0.0 0.0 0.00 0.00 0.00 78 1012.2
20260506014215 1 0.0 0.0 0.00 0.00 0.00 77 1012.2
20260506013216 1 0.0 0.0 0.00 0.00 0.00 77 1012.1
20260506012215 1 0.0 0.0 0.00 0.00 0.00 76 1012.0
20260506011235 2 0.0 1.6 0.00 0.00 0.00 75 1011.8
20260506010216 2 0.0 0.0 0.00 0.00 0.00 74 1011.8
20260506005216 2 315 1.6 1.6 0.00 0.00 0.00 74 1011.7
20260506004215 2 0.0 1.6 0.00 0.00 0.00 74 1011.6
20260506003217 2 315 1.6 4.8 0.00 0.00 0.00 73 1011.5
20260506002217 2 0.0 1.6 0.00 0.00 0.00 73 1011.5
20260506001217 3 315 3.2 6.4 0.00 0.00 0.00 73 1011.4
20260506000258 3 0.0 1.6 0.00 0.00 0.00 72 1011.3
20260505235217 3 0.0 1.6 0.00 0.00 0.00 72 1011.4
20260505234237 3 315 3.2 4.8 0.00 0.00 0.00 72 1011.2
20260505233217 3 0.0 1.6 0.00 0.00 0.00 72 1011.2
20260505232237 3 0.0 1.6 0.00 0.00 0.00 71 1011.1
20260505231217 3 0.0 0.0 0.00 0.00 0.00 71 1011.1
20260505230217 3 0.0 0.0 0.00 0.00 0.00 70 1011.1
20260505225217 4 293 1.6 3.2 0.00 0.00 0.00 69 1011.0
20260505224217 4 315 1.6 3.2 0.00 0.00 0.00 69 1011.0
20260505223217 4 0.0 1.6 0.00 0.00 0.00 69 1010.9
20260505222217 5 315 3.2 3.2 0.00 0.00 0.00 68 1010.8
20260505221217 5 315 1.6 3.2 0.00 0.00 0.00 68 1010.7
20260505220217 5 293 1.6 3.2 0.00 0.00 0.00 68 1010.7
20260505215217 5 315 1.6 3.2 0.00 0.00 0.00 69 1010.5
20260505214217 5 293 1.6 3.2 0.00 0.00 0.00 68 1010.3
20260505213217 6 293 1.6 3.2 0.00 0.00 0.00 67 1010.2
20260505212217 6 315 3.2 4.8 0.00 0.00 0.00 67 1010.1
20260505211217 6 293 4.8 6.4 0.00 0.00 0.00 66 1010.0
20260505210217 6 315 9.7 12.9 0.00 0.00 0.00 65 1009.8
20260505205215 7 315 9.7 14.5 0.00 0.00 0.00 66 1009.8
20260505204216 7 293 8.0 12.9 0.00 0.00 0.00 66 1009.6
20260505203216 7 293 8.0 12.9 0.00 0.00 0.00 66 1009.5
20260505202236 7 315 8.0 12.9 0.00 0.00 0.00 67 1009.3
20260505201216 8 293 6.4 8.0 0.00 0.00 0.00 68 1009.2
20260505200216 8 293 6.4 8.0 0.00 0.00 0.00 67 1009.2
20260505195216 8 315 8.0 12.9 0.00 0.00 0.00 68 1009.0
20260505194215 8 293 8.0 11.3 0.00 0.00 0.00 68 1008.8
20260505193235 8 315 8.0 14.5 0.00 0.00 0.00 68 1008.9
20260505192215 8 293 3.2 6.4 0.00 0.00 0.00 68 1008.7
20260505191215 9 293 4.8 6.4 0.00 0.00 0.00 67 1008.7
20260505190216 9 293 11.3 12.9 0.00 0.00 0.00 66 1008.6
20260505185255 10 293 8.0 11.3 0.00 0.00 0.00 65 1008.5
20260505184216 10 293 11.3 14.5 0.00 0.00 0.00 65 1008.3
20260505183216 10 293 14.5 19.3 0.00 0.00 0.00 64 1008.3
20260505182237 11 293 14.5 17.7 0.00 0.00 0.00 63 1008.3
20260505181218 11 270 11.3 14.5 0.00 0.00 0.00 60 1008.0
20260505180218 11 293 9.7 16.1 0.00 0.00 0.00 59 1007.9
20260505175217 12 293 12.9 17.7 0.00 0.00 0.00 58 1007.7
20260505174238 12 270 9.7 14.5 0.00 0.00 0.00 56 1007.8
20260505173217 12 270 14.5 19.3 0.00 0.00 0.00 53 1007.8
20260505172217 12 293 14.5 19.3 0.00 0.00 0.00 51 1007.8
20260505171217 12 270 14.5 17.7 0.00 0.00 0.00 49 1007.6
20260505170217 13 270 14.5 16.1 0.00 0.00 0.00 47 1007.6
20260505165217 13 293 17.7 25.7 0.00 0.00 0.00 47 1007.6
20260505164217 13 270 16.1 20.9 0.00 0.00 0.00 47 1007.6
20260505163217 13 270 17.7 25.7 0.00 0.00 0.00 48 1007.6
20260505162217 13 293 17.7 24.1 0.00 0.00 0.00 48 1007.4
20260505161217 14 293 16.1 20.9 0.00 0.00 0.00 47 1007.3
20260505160217 14 293 19.3 24.1 0.00 0.00 0.00 48 1007.4
20260505153217 14 293 22.5 27.4 0.00 0.00 0.00 52 1007.2
20260505152237 15 293 22.5 30.6 0.00 0.00 0.00 53 1007.3
20260505151217 15 293 20.9 27.4 0.00 0.00 0.00 53 1007.2
20260505150217 15 293 30.6 37.0 0.00 0.00 0.00 52 1007.1
20260505140237 16 293 19.3 24.1 0.00 0.00 0.00 43 1007.0
20260505130217 17 293 24.1 30.6 0.00 0.00 0.00 41 1006.8
20260505124216 17 270 16.1 24.1 0.00 0.00 0.00 42 1006.8
20260505123217 17 293 20.9 27.4 0.00 0.00 0.00 41 1006.8